CDG2329 ZWWW-ZBAA

Flight info

Callsign CDG2329
Flight time N/A
Altitude 33100
Route VARMI W190 ADPET W188 GOVSA W66 DKO W69 GUVBA
Aircraft B738/M-SDE2E3FGHIRWXY/LB1

Departure

Time 2026-04-29 13:53
Airport Ürümqi Tianshan International Airport (ZWWW)

Arrival

Time N/A
Airport Beijing Capital International Airport (ZBAA)
Time Latitude Longitude Altitude Speed Heading
2026-04-29 13:21 43.91416 87.47116 2139 ft 0 kts 343°
2026-04-29 13:42 43.91405 87.47121 2139 ft 2 kts 343°
2026-04-29 13:42 43.91394 87.47125 2139 ft 0 kts 343°
2026-04-29 13:43 43.91382 87.47132 2139 ft 2 kts 316°
2026-04-29 13:43 43.91373 87.47150 2139 ft 2 kts 287°
2026-04-29 13:43 43.91372 87.47169 2139 ft 0 kts 258°
2026-04-29 13:43 43.91373 87.47177 2139 ft 1 kts 252°
2026-04-29 13:44 43.91374 87.47180 2139 ft 0 kts 253°
2026-04-29 13:45 43.91372 87.47167 2139 ft 3 kts 254°
2026-04-29 13:46 43.91364 87.47121 2139 ft 6 kts 256°
2026-04-29 13:46 43.91349 87.47044 2139 ft 10 kts 253°
2026-04-29 13:46 43.91325 87.46935 2139 ft 13 kts 253°
2026-04-29 13:46 43.91296 87.46795 2139 ft 15 kts 253°
2026-04-29 13:47 43.91267 87.46658 2139 ft 14 kts 253°
2026-04-29 13:47 43.91237 87.46515 2139 ft 15 kts 254°
2026-04-29 13:47 43.91206 87.46362 2139 ft 16 kts 252°
2026-04-29 13:47 43.91171 87.46205 2139 ft 17 kts 253°
2026-04-29 13:48 43.91137 87.46043 2139 ft 18 kts 253°
2026-04-29 13:48 43.91100 87.45870 2139 ft 18 kts 253°
2026-04-29 13:48 43.91064 87.45698 2139 ft 18 kts 253°
2026-04-29 13:48 43.91034 87.45555 2139 ft 9 kts 253°
2026-04-29 13:49 43.91044 87.45479 2139 ft 8 kts 323°
2026-04-29 13:49 43.91105 87.45451 2139 ft 10 kts 343°
2026-04-29 13:49 43.91185 87.45418 2139 ft 13 kts 343°
2026-04-29 13:49 43.91287 87.45376 2139 ft 16 kts 343°
2026-04-29 13:50 43.91410 87.45326 2139 ft 20 kts 343°
2026-04-29 13:50 43.91546 87.45270 2138 ft 19 kts 343°
2026-04-29 13:50 43.91672 87.45218 2138 ft 18 kts 343°
2026-04-29 13:50 43.91792 87.45169 2138 ft 16 kts 343°
2026-04-29 13:51 43.91894 87.45129 2138 ft 9 kts 344°
2026-04-29 13:51 43.91943 87.45154 2138 ft 7 kts 62°
2026-04-29 13:51 43.91959 87.45215 2138 ft 2 kts 72°
2026-04-29 13:51 43.91960 87.45217 2138 ft 0 kts 73°
2026-04-29 13:52 43.91973 87.45276 2138 ft 26 kts 73°
2026-04-29 13:52 43.92095 87.45845 2137 ft 95 kts 73°
2026-04-29 13:52 43.92340 87.46999 2137 ft 152 kts 73°
2026-04-29 13:52 43.92675 87.48608 2315 ft 183 kts 71°
2026-04-29 13:53 43.93053 87.50229 3076 ft 177 kts 66°
2026-04-29 13:53 43.93484 87.51820 3746 ft 178 kts 65°
2026-04-29 13:53 43.93900 87.53400 4172 ft 176 kts 66°
2026-04-29 13:53 43.94313 87.55046 4450 ft 183 kts 66°
2026-04-29 13:54 43.94725 87.56707 4805 ft 184 kts 67°
2026-04-29 13:54 43.95146 87.58395 5159 ft 185 kts 64°
2026-04-29 13:54 43.95816 87.59956 5501 ft 192 kts 39°
2026-04-29 13:54 43.97018 87.60768 5813 ft 200 kts
2026-04-29 13:55 43.98455 87.60755 6106 ft 216 kts 352°
2026-04-29 13:55 43.99996 87.60411 6460 ft 230 kts 350°
2026-04-29 13:55 44.01598 87.60030 6943 ft 238 kts 350°
2026-04-29 13:55 44.03260 87.59654 7485 ft 245 kts 349°
2026-04-29 13:56 44.04933 87.59285 8232 ft 243 kts 349°
2026-04-29 13:56 44.06593 87.58919 8940 ft 243 kts 348°
2026-04-29 13:56 44.08263 87.58549 9624 ft 244 kts 348°
2026-04-29 13:56 44.09935 87.58178 10317 ft 244 kts 348°
2026-04-29 13:57 44.11593 87.57918 11060 ft 243 kts 356°
2026-04-29 13:57 44.13303 87.58297 11542 ft 258 kts 12°
2026-04-29 13:57 44.15042 87.59215 11939 ft 273 kts 16°
2026-04-29 13:57 44.16240 87.59889 12183 ft 281 kts 15°
2026-04-29 13:58 44.18756 87.61223 12693 ft 298 kts 14°
2026-04-29 13:58 44.20744 87.62215 13101 ft 310 kts 13°
2026-04-29 13:58 44.22814 87.63230 13484 ft 323 kts 13°
2026-04-29 13:58 44.24990 87.64291 13872 ft 335 kts 13°
2026-04-29 13:59 44.27259 87.65397 14134 ft 352 kts 14°
2026-04-29 13:59 44.29614 87.66556 14629 ft 361 kts 15°
2026-04-29 13:59 44.31958 87.67933 15264 ft 370 kts 21°
2026-04-29 13:59 44.34183 87.69758 16008 ft 377 kts 28°
2026-04-29 14:00 44.36298 87.71986 16666 ft 384 kts 33°
2026-04-29 14:00 44.38324 87.74419 17372 ft 387 kts 36°
2026-04-29 14:00 44.40342 87.76992 17991 ft 392 kts 37°
2026-04-29 14:00 44.42334 87.79584 18655 ft 394 kts 37°
2026-04-29 14:01 44.44359 87.82220 19247 ft 398 kts 37°
2026-04-29 14:01 44.46404 87.84868 19794 ft 402 kts 36°
2026-04-29 14:01 44.48478 87.87534 20352 ft 406 kts 36°
2026-04-29 14:01 44.50510 87.90273 20902 ft 412 kts 40°
2026-04-29 14:02 44.52373 87.93419 21412 ft 423 kts 48°
2026-04-29 14:02 44.53884 87.96966 21979 ft 432 kts 57°
2026-04-29 14:02 44.55059 88.00899 22454 ft 443 kts 64°
2026-04-29 14:02 44.55888 88.05099 22996 ft 451 kts 72°
2026-04-29 14:03 44.56290 88.09529 23413 ft 464 kts 81°
2026-04-29 14:03 44.56255 88.14069 23832 ft 473 kts 88°
2026-04-29 14:03 44.55974 88.18712 24251 ft 480 kts 91°
2026-04-29 14:03 44.55569 88.23319 24718 ft 483 kts 92°
2026-04-29 14:04 44.55103 88.28046 25038 ft 490 kts 93°
2026-04-29 14:04 44.54620 88.32780 25551 ft 491 kts 93°
2026-04-29 14:04 44.54140 88.37489 25889 ft 496 kts 93°
2026-04-29 14:04 44.53657 88.42302 26289 ft 499 kts 93°
2026-04-29 14:05 44.53186 88.47099 26676 ft 502 kts 93°
2026-04-29 14:05 44.52719 88.51933 27225 ft 500 kts 93°
2026-04-29 14:05 44.52262 88.56802 27812 ft 498 kts 93°
2026-04-29 14:05 44.51830 88.61567 28325 ft 497 kts 93°
2026-04-29 14:06 44.51405 88.66336 28817 ft 496 kts 94°
2026-04-29 14:06 44.50979 88.71157 29223 ft 496 kts 94°
2026-04-29 14:06 44.50555 88.75962 29592 ft 498 kts 94°
2026-04-29 14:06 44.50130 88.80765 29955 ft 499 kts 94°
2026-04-29 14:07 44.49698 88.85607 30277 ft 501 kts 94°
2026-04-29 14:07 44.49271 88.90353 30724 ft 500 kts 94°
2026-04-29 14:07 44.48833 88.95212 31126 ft 499 kts 94°
2026-04-29 14:07 44.48396 89.00036 31556 ft 498 kts 94°
2026-04-29 14:08 44.47959 89.04810 31915 ft 498 kts 94°
2026-04-29 14:08 44.47519 89.09583 32290 ft 497 kts 94°
2026-04-29 14:08 44.47068 89.14405 32661 ft 496 kts 95°
2026-04-29 14:08 44.46615 89.19193 33031 ft 496 kts 95°
2026-04-29 14:09 44.46160 89.23961 33231 ft 498 kts 95°
2026-04-29 14:09 44.45700 89.28775 33234 ft 500 kts 95°
2026-04-29 14:09 44.44781 89.38328 33212 ft 496 kts 95°
2026-04-29 14:10 44.43849 89.47938 33212 ft 497 kts 95°
2026-04-29 14:10 44.42909 89.57552 33232 ft 500 kts 95°
2026-04-29 14:11 44.41927 89.67242 33191 ft 501 kts 98°
2026-04-29 14:11 44.40372 89.76674 33194 ft 501 kts 104°
2026-04-29 14:12 44.38334 89.86084 33201 ft 505 kts 107°
2026-04-29 14:12 44.36212 89.95411 33201 ft 504 kts 107°
2026-04-29 14:13 44.34097 90.04769 33188 ft 505 kts 107°
2026-04-29 14:13 44.32009 90.14118 33202 ft 505 kts 107°
2026-04-29 14:14 44.29925 90.23518 33205 ft 506 kts 106°
2026-04-29 14:14 44.27864 90.32819 33212 ft 506 kts 106°
2026-04-29 14:15 44.25775 90.42230 33208 ft 506 kts 107°
2026-04-29 14:15 44.23657 90.51728 33450 ft 515 kts 107°
2026-04-29 14:16 44.22601 90.56451 33756 ft 515 kts 107°
2026-04-29 14:16 44.21519 90.61270 33977 ft 516 kts 106°
2026-04-29 14:16 44.20447 90.66035 34272 ft 515 kts 107°
2026-04-29 14:16 44.19371 90.70806 34599 ft 513 kts 107°
2026-04-29 14:17 44.18304 90.75530 34848 ft 513 kts 107°
2026-04-29 14:17 44.17237 90.80247 35120 ft 511 kts 107°
2026-04-29 14:17 44.15095 90.89676 35180 ft 508 kts 108°
2026-04-29 14:18 44.12956 90.99050 35174 ft 507 kts 107°
2026-04-29 14:18 44.10802 91.08452 35192 ft 508 kts 107°
2026-04-29 14:19 44.08646 91.17834 35174 ft 506 kts 107°
2026-04-29 14:19 44.06499 91.27138 35190 ft 508 kts 107°
2026-04-29 14:20 44.04314 91.36556 35176 ft 506 kts 107°
2026-04-29 14:20 44.02159 91.45793 35183 ft 509 kts 108°
2026-04-29 14:21 43.99963 91.55101 35199 ft 505 kts 108°
2026-04-29 14:21 43.97751 91.64422 35180 ft 506 kts 108°
2026-04-29 14:22 43.95517 91.73790 35172 ft 506 kts 108°
2026-04-29 14:22 43.93304 91.83044 35172 ft 506 kts 108°
2026-04-29 14:23 43.91078 91.92323 35192 ft 507 kts 109°
2026-04-29 14:23 43.88844 92.01595 35174 ft 505 kts 109°
2026-04-29 14:24 43.86611 92.10815 35169 ft 504 kts 109°
2026-04-29 14:24 43.84351 92.20116 35165 ft 505 kts 109°
2026-04-29 14:25 43.82115 92.29269 35148 ft 505 kts 109°
2026-04-29 14:25 43.79865 92.38454 35156 ft 506 kts 109°
2026-04-29 14:26 43.77605 92.47636 35152 ft 501 kts 109°
2026-04-29 14:26 43.75362 92.56712 35164 ft 505 kts 110°
2026-04-29 14:27 43.73101 92.65833 35168 ft 503 kts 110°
2026-04-29 14:28 43.69688 92.79523 35172 ft 502 kts 110°
2026-04-29 14:28 43.67415 92.88596 35157 ft 503 kts 110°
2026-04-29 14:29 43.65134 92.97662 35143 ft 501 kts 110°
2026-04-29 14:29 43.62899 93.06731 35144 ft 501 kts 110°
2026-04-29 14:30 43.60724 93.15866 35140 ft 502 kts 109°
2026-04-29 14:30 43.58551 93.25020 35139 ft 502 kts 109°
2026-04-29 14:31 43.56366 93.34148 35142 ft 502 kts 109°
2026-04-29 14:31 43.54178 93.43214 35151 ft 501 kts 110°
2026-04-29 14:32 43.51950 93.52389 35150 ft 502 kts 110°
2026-04-29 14:32 43.49720 93.61523 35157 ft 503 kts 110°
2026-04-29 14:33 43.47481 93.70656 35150 ft 503 kts 110°
2026-04-29 14:33 43.45225 93.79818 35152 ft 503 kts 111°
2026-04-29 14:34 43.42983 93.88895 35166 ft 505 kts 110°
2026-04-29 14:34 43.40710 93.98064 35166 ft 504 kts 111°
2026-04-29 14:35 43.38456 94.07121 35174 ft 504 kts 111°
2026-04-29 14:35 43.36169 94.16270 35168 ft 504 kts 111°
2026-04-29 14:36 43.33889 94.25359 35167 ft 503 kts 111°
2026-04-29 14:36 43.31588 94.34486 35162 ft 504 kts 111°
2026-04-29 14:37 43.29265 94.43666 35165 ft 504 kts 111°
2026-04-29 14:37 43.26954 94.52766 35151 ft 505 kts 111°
2026-04-29 14:38 43.24639 94.61851 35147 ft 505 kts 111°
2026-04-29 14:38 43.22315 94.70927 35153 ft 505 kts 112°
2026-04-29 14:39 43.19994 94.79967 35158 ft 504 kts 112°
2026-04-29 14:39 43.17664 94.89001 35163 ft 505 kts 111°
2026-04-29 14:40 43.15328 94.98025 35179 ft 504 kts 112°
2026-04-29 14:40 43.12453 95.06724 35166 ft 497 kts 127°
2026-04-29 14:40 43.10297 95.10340 35181 ft 490 kts 141°
2026-04-29 14:41 43.07698 95.13350 35184 ft 486 kts 148°
2026-04-29 14:41 43.02215 95.18638 35184 ft 483 kts 152°
2026-04-29 14:42 42.96585 95.23748 35177 ft 482 kts 153°
2026-04-29 14:42 42.91022 95.28794 35178 ft 485 kts 152°
2026-04-29 14:43 42.85390 95.33943 35174 ft 485 kts 152°
2026-04-29 14:43 42.79790 95.39092 35173 ft 488 kts 152°
2026-04-29 14:44 42.74166 95.44271 35177 ft 487 kts 152°
2026-04-29 14:44 42.68549 95.49442 35163 ft 491 kts 152°
2026-04-29 14:45 42.62896 95.54636 35164 ft 490 kts 153°
2026-04-29 14:45 42.57214 95.59843 35160 ft 490 kts 153°
2026-04-29 14:46 42.51562 95.65009 35161 ft 493 kts 153°
2026-04-29 14:46 42.45859 95.70215 35163 ft 492 kts 154°
2026-04-29 14:47 42.40197 95.75364 35162 ft 496 kts 154°
2026-04-29 14:47 42.34466 95.80601 35168 ft 495 kts 153°
2026-04-29 14:48 42.28744 95.85902 35165 ft 502 kts 153°
2026-04-29 14:48 42.23005 95.91238 35170 ft 499 kts 154°
2026-04-29 14:49 42.17295 95.96527 35169 ft 501 kts 154°
2026-04-29 14:49 42.11498 96.01868 35174 ft 502 kts 154°
2026-04-29 14:50 42.05711 96.07188 35184 ft 503 kts 154°
2026-04-29 14:50 41.99923 96.12492 35191 ft 502 kts 154°
2026-04-29 14:51 41.94156 96.17981 35187 ft 516 kts 147°
2026-04-29 14:51 41.91625 96.21334 35181 ft 524 kts 135°
2026-04-29 14:51 41.89595 96.25474 35186 ft 533 kts 120°
2026-04-29 14:51 41.88233 96.30131 35180 ft 539 kts 107°
2026-04-29 14:52 41.87483 96.35019 35178 ft 542 kts 97°
2026-04-29 14:52 41.86978 96.45034 35164 ft 537 kts 89°
2026-04-29 14:53 41.87195 96.55019 35151 ft 536 kts 84°
2026-04-29 14:53 41.87386 96.59979 35311 ft 534 kts 84°
2026-04-29 14:53 41.87569 96.64930 35140 ft 535 kts 84°
2026-04-29 14:54 41.87855 96.74887 35142 ft 534 kts 86°
2026-04-29 14:54 41.88037 96.84789 35143 ft 535 kts 87°
2026-04-29 14:55 41.88161 96.94712 35140 ft 533 kts 88°
2026-04-29 14:55 41.88260 97.04600 35136 ft 533 kts 87°
2026-04-29 14:56 41.88355 97.14515 35132 ft 532 kts 87°
2026-04-29 14:56 41.88444 97.24460 35141 ft 533 kts 87°
2026-04-29 14:57 41.88528 97.34390 35143 ft 530 kts 87°
2026-04-29 14:57 41.88601 97.44208 35132 ft 529 kts 87°
2026-04-29 14:58 41.88670 97.54109 35125 ft 527 kts 87°
2026-04-29 14:58 41.88726 97.63879 35129 ft 527 kts 87°
2026-04-29 14:59 41.88776 97.73722 35128 ft 525 kts 88°
2026-04-29 14:59 41.88815 97.83508 35126 ft 526 kts 88°
2026-04-29 15:00 41.88846 97.93247 35123 ft 524 kts 88°
2026-04-29 15:00 41.88873 98.02986 35126 ft 522 kts 88°
2026-04-29 15:01 41.88890 98.12690 35129 ft 523 kts 88°
2026-04-29 15:01 41.88901 98.22425 35130 ft 520 kts 87°
2026-04-29 15:02 41.88900 98.32131 35137 ft 519 kts 87°
2026-04-29 15:02 41.88890 98.41800 35143 ft 520 kts 87°
2026-04-29 15:03 41.88874 98.51514 35133 ft 517 kts 88°
2026-04-29 15:03 41.88850 98.61108 35128 ft 516 kts 88°
2026-04-29 15:04 41.88818 98.70780 35117 ft 515 kts 88°
2026-04-29 15:04 41.88777 98.80340 35109 ft 512 kts 88°
2026-04-29 15:05 41.88727 98.89890 35110 ft 515 kts 88°
2026-04-29 15:05 41.88674 98.99369 35106 ft 508 kts 88°
2026-04-29 15:06 41.88614 99.08886 35101 ft 511 kts 88°
2026-04-29 15:06 41.88542 99.18378 35084 ft 509 kts 88°
2026-04-29 15:07 41.88466 99.27842 35073 ft 507 kts 89°
2026-04-29 15:07 41.88384 99.37350 35055 ft 507 kts 88°
2026-04-29 15:08 41.88291 99.46823 35047 ft 508 kts 88°
2026-04-29 15:08 41.88192 99.56264 35032 ft 505 kts 88°
2026-04-29 15:09 41.88081 99.65700 35026 ft 504 kts 89°
2026-04-29 15:09 41.87966 99.75026 35030 ft 505 kts 90°
2026-04-29 15:10 41.87838 99.84426 35013 ft 503 kts 90°
2026-04-29 15:10 41.87706 99.93761 35013 ft 502 kts 90°
2026-04-29 15:11 41.87571 100.03112 35029 ft 500 kts 90°
2026-04-29 15:11 41.87426 100.12422 35014 ft 500 kts 90°
2026-04-29 15:12 41.87276 100.21744 35014 ft 498 kts 90°
2026-04-29 15:12 41.87114 100.30969 35015 ft 496 kts 90°
2026-04-29 15:13 41.86944 100.40278 35024 ft 497 kts 90°
2026-04-29 15:13 41.86769 100.49435 35039 ft 493 kts 90°
2026-04-29 15:14 41.86585 100.58700 35037 ft 493 kts 91°
2026-04-29 15:14 41.86395 100.67807 35030 ft 492 kts 92°
2026-04-29 15:15 41.86200 100.76941 35015 ft 489 kts 91°
2026-04-29 15:15 41.85999 100.86038 35036 ft 489 kts 92°
2026-04-29 15:16 41.85791 100.95100 35036 ft 486 kts 91°
2026-04-29 15:16 41.85577 101.04125 35017 ft 485 kts 92°
2026-04-29 15:17 41.85353 101.13240 35018 ft 488 kts 92°
2026-04-29 15:17 41.84799 101.22257 35025 ft 484 kts 100°
2026-04-29 15:18 41.83081 101.30920 35021 ft 485 kts 109°
2026-04-29 15:18 41.80779 101.39362 35035 ft 484 kts 111°
2026-04-29 15:19 41.78359 101.47787 35019 ft 483 kts 111°
2026-04-29 15:19 41.75954 101.56210 35046 ft 488 kts 111°
2026-04-29 15:20 41.73565 101.64700 35053 ft 486 kts 111°
2026-04-29 15:20 41.71211 101.73131 35056 ft 486 kts 111°
2026-04-29 15:21 41.68851 101.81596 35053 ft 487 kts 111°
2026-04-29 15:21 41.66501 101.90016 35057 ft 485 kts 111°
2026-04-29 15:22 41.64135 101.98468 35057 ft 487 kts 110°
2026-04-29 15:22 41.61763 102.06912 35065 ft 486 kts 110°
2026-04-29 15:23 41.59369 102.15406 35067 ft 485 kts 110°
2026-04-29 15:23 41.56982 102.23843 35075 ft 486 kts 110°
2026-04-29 15:24 41.54594 102.32251 35077 ft 485 kts 111°
2026-04-29 15:24 41.52202 102.40653 35086 ft 486 kts 110°
2026-04-29 15:25 41.49802 102.49060 35090 ft 485 kts 110°
2026-04-29 15:25 41.47403 102.57433 35098 ft 485 kts 110°
2026-04-29 15:26 41.44990 102.65826 35099 ft 485 kts 111°
2026-04-29 15:26 41.42572 102.74214 35111 ft 484 kts 111°
2026-04-29 15:27 41.40186 102.82512 35118 ft 484 kts 111°
2026-04-29 15:27 41.37780 102.90875 35122 ft 482 kts 111°
2026-04-29 15:28 41.35381 102.99190 35131 ft 483 kts 111°
2026-04-29 15:28 41.33025 103.07563 35135 ft 482 kts 110°
2026-04-29 15:29 41.30725 103.15936 35143 ft 485 kts 109°
2026-04-29 15:30 41.26081 103.32755 35141 ft 484 kts 109°
2026-04-29 15:30 41.23740 103.41149 35143 ft 484 kts 109°
2026-04-29 15:31 41.21397 103.49509 35136 ft 483 kts 109°
2026-04-29 15:31 41.19046 103.57864 35142 ft 484 kts 109°
2026-04-29 15:32 41.16683 103.66233 35139 ft 484 kts 109°
2026-04-29 15:32 41.14310 103.74610 35139 ft 484 kts 109°
2026-04-29 15:33 41.11943 103.82939 35152 ft 484 kts 109°
2026-04-29 15:33 41.09585 103.91216 35152 ft 484 kts 109°
2026-04-29 15:34 41.07196 103.99577 35156 ft 485 kts 109°
2026-04-29 15:34 41.04803 104.07916 35153 ft 484 kts 109°
2026-04-29 15:35 41.02416 104.16215 35161 ft 484 kts 109°
2026-04-29 15:35 41.00025 104.24495 35161 ft 483 kts 109°
2026-04-29 15:36 40.97617 104.32842 35169 ft 483 kts 108°
2026-04-29 15:36 40.95486 104.41182 35178 ft 483 kts 104°
2026-04-29 15:37 40.93504 104.49661 35197 ft 483 kts 104°
2026-04-29 15:37 40.91523 104.58142 35195 ft 482 kts 104°
2026-04-29 15:38 40.89518 104.66563 35196 ft 481 kts 105°
2026-04-29 15:38 40.87471 104.75019 35190 ft 482 kts 105°
2026-04-29 15:39 40.85415 104.83435 35193 ft 483 kts 105°
2026-04-29 15:39 40.83355 104.91819 35192 ft 481 kts 105°
2026-04-29 15:40 40.81289 105.00198 35197 ft 482 kts 105°
2026-04-29 15:40 40.79205 105.08613 35190 ft 480 kts 105°
2026-04-29 15:41 40.77113 105.17042 35190 ft 483 kts 105°
2026-04-29 15:41 40.75000 105.25523 35186 ft 482 kts 104°
2026-04-29 15:42 40.72893 105.33952 35189 ft 481 kts 104°
2026-04-29 15:42 40.70776 105.42389 35194 ft 482 kts 104°
2026-04-29 15:43 40.68671 105.50747 35202 ft 482 kts 104°
2026-04-29 15:43 40.66540 105.59177 35214 ft 480 kts 104°
2026-04-29 15:44 40.64435 105.67480 35214 ft 482 kts 105°
2026-04-29 15:44 40.62297 105.75884 35219 ft 482 kts 105°
2026-04-29 15:45 40.60168 105.84215 35215 ft 482 kts 104°
2026-04-29 15:45 40.58030 105.92555 35215 ft 482 kts 104°
2026-04-29 15:46 40.55896 106.00852 35207 ft 480 kts 104°
2026-04-29 15:46 40.53749 106.09179 35202 ft 481 kts 104°
2026-04-29 15:47 40.51596 106.17493 35204 ft 480 kts 104°
2026-04-29 15:47 40.49440 106.25790 35196 ft 478 kts 104°
2026-04-29 15:48 40.47281 106.34077 35194 ft 480 kts 104°
2026-04-29 15:48 40.45117 106.42351 35201 ft 478 kts 104°
2026-04-29 15:49 40.42934 106.50670 35196 ft 479 kts 104°
2026-04-29 15:49 40.40765 106.58898 35195 ft 476 kts 104°
2026-04-29 15:50 40.38591 106.67128 35198 ft 478 kts 104°
2026-04-29 15:50 40.36424 106.75304 35203 ft 475 kts 104°
2026-04-29 15:51 40.34246 106.83494 35205 ft 477 kts 104°
2026-04-29 15:51 40.32114 106.91734 35206 ft 473 kts 100°
2026-04-29 15:52 40.31334 107.00103 35214 ft 456 kts 80°
2026-04-29 15:52 40.32089 107.08260 35216 ft 450 kts 74°
2026-04-29 15:53 40.33159 107.16305 35216 ft 448 kts 73°
2026-04-29 15:53 40.34250 107.24372 35219 ft 448 kts 73°
2026-04-29 15:54 40.35298 107.32459 35221 ft 449 kts 74°
2026-04-29 15:54 40.36306 107.40523 35220 ft 448 kts 74°
2026-04-29 15:55 40.37294 107.48594 35222 ft 449 kts 75°
2026-04-29 15:55 40.38267 107.56643 35224 ft 447 kts 74°
2026-04-29 15:56 40.39234 107.64683 35221 ft 448 kts 74°
2026-04-29 15:56 40.40196 107.72757 35220 ft 447 kts 75°
2026-04-29 15:57 40.41146 107.80790 35221 ft 445 kts 75°
2026-04-29 15:57 40.42098 107.88869 35221 ft 446 kts 75°
2026-04-29 15:58 40.43040 107.96901 35221 ft 446 kts 75°
2026-04-29 15:58 40.43974 108.04953 35230 ft 444 kts 75°
2026-04-29 15:59 40.44899 108.12965 35226 ft 446 kts 75°
2026-04-29 15:59 40.45820 108.21001 35230 ft 445 kts 75°
2026-04-29 16:00 40.46731 108.28991 35228 ft 445 kts 76°
2026-04-29 16:00 40.47488 108.35685 35224 ft 444 kts 76°
2026-04-29 16:01 40.48092 108.41046 35235 ft 444 kts 76°